TimePST,TemperatureF,Dew PointF,Humidity,Sea Level PressureIn,VisibilityMPH,Wind Direction,Wind SpeedMPH,Gust SpeedMPH,PrecipitationIn,Events,Conditions,WindDirDegrees,DateUTC
12:53 AM,32.0,28.0,85,30.28,6.0,Calm,Calm,-,N/A,,Clear,0,2013-02-12 08:53:00
1:53 AM,30.9,27.0,85,30.28,7.0,Calm,Calm,-,N/A,,Scattered Clouds,0,2013-02-12 09:53:00
2:53 AM,32.0,27.0,82,30.28,6.0,Calm,Calm,-,N/A,,Haze,0,2013-02-12 10:53:00
3:53 AM,32.0,28.0,85,30.29,7.0,WSW,3.5,-,N/A,,Partly Cloudy,250,2013-02-12 11:53:00
4:53 AM,34.0,28.9,82,30.30,7.0,Calm,Calm,-,N/A,,Clear,0,2013-02-12 12:53:00
5:53 AM,33.1,28.0,82,30.31,7.0,Calm,Calm,-,N/A,,Clear,0,2013-02-12 13:53:00
6:53 AM,34.0,28.9,82,30.32,10.0,SW,3.5,-,N/A,,Mostly Cloudy,220,2013-02-12 14:53:00
7:53 AM,34.0,28.9,82,30.34,10.0,Calm,Calm,-,N/A,,Scattered Clouds,0,2013-02-12 15:53:00
8:53 AM,35.1,30.0,82,30.35,10.0,Calm,Calm,-,N/A,,Scattered Clouds,0,2013-02-12 16:53:00
9:53 AM,37.9,30.9,76,30.35,10.0,Calm,Calm,-,N/A,,Scattered Clouds,0,2013-02-12 17:53:00
10:53 AM,39.9,32.0,73,30.35,10.0,WNW,4.6,-,N/A,,Partly Cloudy,300,2013-02-12 18:53:00
11:53 AM,44.1,33.1,65,30.32,10.0,Calm,Calm,-,N/A,,Partly Cloudy,0,2013-02-12 19:53:00
12:53 PM,50.0,33.1,52,30.32,10.0,SSE,3.5,-,N/A,,Partly Cloudy,150,2013-02-12 20:53:00
1:53 PM,55.0,33.1,43,30.30,10.0,ESE,3.5,-,N/A,,Scattered Clouds,110,2013-02-12 21:53:00
2:53 PM,55.9,33.1,42,30.29,10.0,ESE,3.5,-,N/A,,Clear,120,2013-02-12 22:53:00
3:53 PM,57.9,33.1,39,30.27,10.0,SSE,3.5,-,N/A,,Scattered Clouds,150,2013-02-12 23:53:00
4:53 PM,53.1,35.1,50,30.27,10.0,SSE,5.8,-,N/A,,Partly Cloudy,160,2013-02-13 00:53:00
5:53 PM,45.0,33.1,63,30.27,10.0,Calm,Calm,-,N/A,,Clear,0,2013-02-13 01:53:00
6:53 PM,44.1,32.0,63,30.26,10.0,Calm,Calm,-,N/A,,Mostly Cloudy,0,2013-02-13 02:53:00
7:53 PM,44.1,32.0,63,30.25,10.0,Calm,Calm,-,N/A,,Clear,0,2013-02-13 03:53:00
8:53 PM,42.1,32.0,67,30.24,10.0,Calm,Calm,-,N/A,,Clear,0,2013-02-13 04:53:00
9:53 PM,42.1,33.1,70,30.24,10.0,NNE,6.9,-,N/A,,Clear,30,2013-02-13 05:53:00
10:53 PM,44.1,33.1,65,30.23,10.0,NNW,5.8,-,N/A,,Clear,340,2013-02-13 06:53:00
11:53 PM,43.0,33.1,68,30.22,10.0,Variable,3.5,-,N/A,,Clear,0,2013-02-13 07:53:00